(°C)
(°C)
N
N
N
N
N
N
NNE
(km/h)
6-10
6-11
7-12
7-13
7-13
6-13
6-12
(mm)
0
0
0
0
0
0
0
(%)
1
1
0
0
0
0
0

Elevación del sol

/ 22.5°
sun-icon
UV 1
07:43
16:58
Gibosa menguante (256°)
00:00
10:57

METAR a Renton (KRNT)

Hora Condiciones Temperatura/
Punto de condensación
Viento Visibilidad Tiempo Nubes Presión Cambiar Bruto
IFR 3.9°C / 1.7°C 350º 4kt 9700m Mist Vertical Visibility of 0ft. 1026 - KRNT 242053Z 35004KT 6SM BR OVC005 04/02 A3031 RMK AO2 SLP268 T00390017 58003 $
IFR 3.3°C / 1.7°C variable 0kt 6400m Mist Vertical Visibility of 0ft. - KRNT 242000Z 00000KT 4SM BR OVC005 03/02 A3032 RMK AO2 T00330017 $
LIFR 3.3°C / 2.2°C variable 0kt 6400m Mist Vertical Visibility of 0ft. - KRNT 241944Z 00000KT 4SM BR OVC004 03/02 A3032 RMK AO2 T00330022 $
IFR 2.8°C / 1.1°C variable 0kt 9700m Mist Vertical Visibility of 0ft. - KRNT 241900Z 00000KT 6SM BR OVC005 03/01 A3033 RMK AO2 T00280011 $
LIFR 2.2°C / 1.1°C variable 0kt 9700m Mist Vertical Visibility of 0ft. 1027 - KRNT 241753Z 00000KT 6SM BR OVC003 02/01 A3032 RMK AO2 SLP271 T00220011 10028 20017 52013
LIFR 2.2°C / 1.1°C variable 3kt 4800m Mist Vertical Visibility of 0ft. - KRNT 241703Z VRB03KT 3SM BR OVC003 02/01 A3030 RMK AO2 T00220011
LIFR 2.2°C / 1.1°C 50º 3kt 4000m Mist Vertical Visibility of 0ft. 1026 - KRNT 241653Z 05003KT 2 1/2SM BR OVC003 02/01 A3030 RMK AO2 SLP265 T00220011
LIFR 2°C / 1°C variable 0kt 4000m Mist Vertical Visibility of 0ft. - KRNT 241651Z 00000KT 2 1/2SM BR OVC003 02/01 A3030 RMK AO2
LIFR 2.2°C / 1.1°C variable 3kt 4800m Mist Vertical Visibility of 0ft. - KRNT 241630Z VRB03KT 3SM BR OVC003 02/01 A3029 RMK AO2 T00220011
LIFR 2.2°C / 1.1°C variable 3kt 4000m Mist Vertical Visibility of 0ft. - KRNT 241617Z VRB03KT 2 1/2SM BR OVC003 02/01 A3029 RMK AO2 T00220011
LIFR 2.2°C / 1.1°C variable 0kt 4800m Mist Vertical Visibility of 0ft. - KRNT 241603Z 00000KT 3SM BR OVC003 02/01 A3028 RMK AO2 T00220011
LIFR 2.2°C / 1.1°C variable 0kt 4000m Mist Vertical Visibility of 0ft. 1025 - KRNT 241553Z 00000KT 2 1/2SM BR OVC003 02/01 A3028 RMK AO2 SLP258 T00220011
LIFR 2.2°C / 1.1°C variable 0kt 4000m Mist Vertical Visibility of 0ft. - KRNT 241512Z 00000KT 2 1/2SM BR OVC003 02/01 A3027 RMK AO2 T00220011
LIFR 2.2°C / 1.1°C 350º 5kt 6400m Mist Vertical Visibility of 0ft. 1025 - KRNT 241453Z AUTO 35005KT 4SM BR OVC004 02/01 A3028 RMK AO2 SLP257 T00220011 56007
LIFR 2.2°C / 1.1°C 320º 5kt >10km - Overcast 400ft - KRNT 241429Z AUTO 32005KT 7SM OVC004 02/01 A3028 RMK AO2 T00220011
IFR 2.2°C / 1.1°C 50º 3kt >10km - Overcast 500ft 1025 - KRNT 241353Z AUTO 05003KT 9SM OVC005 02/01 A3028 RMK AO2 SLP259 T00220011
IFR 2.2°C / 0.6°C variable 0kt >10km - Overcast 500ft 1025 - KRNT 241253Z AUTO 00000KT 10SM OVC005 02/01 A3028 RMK AO2 CIG 005V009 SLP259 T00220006
IFR 2.2°C / 0.6°C variable 0kt >10km - Overcast 500ft 1026 - KRNT 241153Z AUTO 00000KT 8SM OVC005 02/01 A3030 RMK AO2 SLP264 T00220006 10028 20022 58007
IFR 2.2°C / 0.6°C variable 0kt >10km - Overcast 500ft - KRNT 241140Z AUTO 00000KT 8SM OVC005 02/01 A3030 RMK AO2 T00220006
LIFR 2.2°C / 1.1°C variable 0kt >10km - Overcast 400ft - KRNT 241130Z AUTO 00000KT 8SM OVC004 02/01 A3030 RMK AO2 T00220011
IFR 2.2°C / 0.6°C 90º 3kt >10km - Overcast 500ft 1026 - KRNT 241053Z AUTO 09003KT 9SM OVC005 02/01 A3030 RMK AO2 SLP266 T00220006
IFR 2.8°C / 1.1°C variable 0kt >10km - Overcast 500ft 1027 - KRNT 240953Z AUTO 00000KT 9SM OVC005 03/01 A3031 RMK AO2 SLP270 T00280011
IFR 2.2°C / 1.1°C variable 0kt >10km - Overcast 500ft - KRNT 240913Z AUTO 00000KT 8SM OVC005 02/01 A3031 RMK AO2 T00220011
LIFR 2.2°C / 1.1°C variable 0kt >10km - Overcast 400ft 1027 - KRNT 240853Z AUTO 00000KT 7SM OVC004 02/01 A3032 RMK AO2 SLP272 T00220011 58006

IFR

3.9°C / 1.7°C

[Más]
Viento 350º 4kt
Visibilidad 9700m
Tiempo Mist
Nubes Vertical Visibility of 0ft.
Presión 1026
Cambiar -
Bruto KRNT 242053Z 35004KT 6SM BR OVC005 04/02 A3031 RMK AO2 SLP268 T00390017 58003 $

IFR

3.3°C / 1.7°C

[Más]
Viento variable 0kt
Visibilidad 6400m
Tiempo Mist
Nubes Vertical Visibility of 0ft.
Presión
Cambiar -
Bruto KRNT 242000Z 00000KT 4SM BR OVC005 03/02 A3032 RMK AO2 T00330017 $

LIFR

3.3°C / 2.2°C

[Más]
Viento variable 0kt
Visibilidad 6400m
Tiempo Mist
Nubes Vertical Visibility of 0ft.
Presión
Cambiar -
Bruto KRNT 241944Z 00000KT 4SM BR OVC004 03/02 A3032 RMK AO2 T00330022 $

IFR

2.8°C / 1.1°C

[Más]
Viento variable 0kt
Visibilidad 9700m
Tiempo Mist
Nubes Vertical Visibility of 0ft.
Presión
Cambiar -
Bruto KRNT 241900Z 00000KT 6SM BR OVC005 03/01 A3033 RMK AO2 T00280011 $

LIFR

2.2°C / 1.1°C

[Más]
Viento variable 0kt
Visibilidad 9700m
Tiempo Mist
Nubes Vertical Visibility of 0ft.
Presión 1027
Cambiar -
Bruto KRNT 241753Z 00000KT 6SM BR OVC003 02/01 A3032 RMK AO2 SLP271 T00220011 10028 20017 52013

LIFR

2.2°C / 1.1°C

[Más]
Viento variable 3kt
Visibilidad 4800m
Tiempo Mist
Nubes Vertical Visibility of 0ft.
Presión
Cambiar -
Bruto KRNT 241703Z VRB03KT 3SM BR OVC003 02/01 A3030 RMK AO2 T00220011

LIFR

2.2°C / 1.1°C

[Más]
Viento 50º 3kt
Visibilidad 4000m
Tiempo Mist
Nubes Vertical Visibility of 0ft.
Presión 1026
Cambiar -
Bruto KRNT 241653Z 05003KT 2 1/2SM BR OVC003 02/01 A3030 RMK AO2 SLP265 T00220011

LIFR

2°C / 1°C

[Más]
Viento variable 0kt
Visibilidad 4000m
Tiempo Mist
Nubes Vertical Visibility of 0ft.
Presión
Cambiar -
Bruto KRNT 241651Z 00000KT 2 1/2SM BR OVC003 02/01 A3030 RMK AO2

LIFR

2.2°C / 1.1°C

[Más]
Viento variable 3kt
Visibilidad 4800m
Tiempo Mist
Nubes Vertical Visibility of 0ft.
Presión
Cambiar -
Bruto KRNT 241630Z VRB03KT 3SM BR OVC003 02/01 A3029 RMK AO2 T00220011

LIFR

2.2°C / 1.1°C

[Más]
Viento variable 3kt
Visibilidad 4000m
Tiempo Mist
Nubes Vertical Visibility of 0ft.
Presión
Cambiar -
Bruto KRNT 241617Z VRB03KT 2 1/2SM BR OVC003 02/01 A3029 RMK AO2 T00220011

LIFR

2.2°C / 1.1°C

[Más]
Viento variable 0kt
Visibilidad 4800m
Tiempo Mist
Nubes Vertical Visibility of 0ft.
Presión
Cambiar -
Bruto KRNT 241603Z 00000KT 3SM BR OVC003 02/01 A3028 RMK AO2 T00220011

LIFR

2.2°C / 1.1°C

[Más]
Viento variable 0kt
Visibilidad 4000m
Tiempo Mist
Nubes Vertical Visibility of 0ft.
Presión 1025
Cambiar -
Bruto KRNT 241553Z 00000KT 2 1/2SM BR OVC003 02/01 A3028 RMK AO2 SLP258 T00220011

LIFR

2.2°C / 1.1°C

[Más]
Viento variable 0kt
Visibilidad 4000m
Tiempo Mist
Nubes Vertical Visibility of 0ft.
Presión
Cambiar -
Bruto KRNT 241512Z 00000KT 2 1/2SM BR OVC003 02/01 A3027 RMK AO2 T00220011

LIFR

2.2°C / 1.1°C

[Más]
Viento 350º 5kt
Visibilidad 6400m
Tiempo Mist
Nubes Vertical Visibility of 0ft.
Presión 1025
Cambiar -
Bruto KRNT 241453Z AUTO 35005KT 4SM BR OVC004 02/01 A3028 RMK AO2 SLP257 T00220011 56007

LIFR

2.2°C / 1.1°C

[Más]
Viento 320º 5kt
Visibilidad >10km
Tiempo -
Nubes Overcast 400ft
Presión
Cambiar -
Bruto KRNT 241429Z AUTO 32005KT 7SM OVC004 02/01 A3028 RMK AO2 T00220011

IFR

2.2°C / 1.1°C

[Más]
Viento 50º 3kt
Visibilidad >10km
Tiempo -
Nubes Overcast 500ft
Presión 1025
Cambiar -
Bruto KRNT 241353Z AUTO 05003KT 9SM OVC005 02/01 A3028 RMK AO2 SLP259 T00220011

IFR

2.2°C / 0.6°C

[Más]
Viento variable 0kt
Visibilidad >10km
Tiempo -
Nubes Overcast 500ft
Presión 1025
Cambiar -
Bruto KRNT 241253Z AUTO 00000KT 10SM OVC005 02/01 A3028 RMK AO2 CIG 005V009 SLP259 T00220006

IFR

2.2°C / 0.6°C

[Más]
Viento variable 0kt
Visibilidad >10km
Tiempo -
Nubes Overcast 500ft
Presión 1026
Cambiar -
Bruto KRNT 241153Z AUTO 00000KT 8SM OVC005 02/01 A3030 RMK AO2 SLP264 T00220006 10028 20022 58007

IFR

2.2°C / 0.6°C

[Más]
Viento variable 0kt
Visibilidad >10km
Tiempo -
Nubes Overcast 500ft
Presión
Cambiar -
Bruto KRNT 241140Z AUTO 00000KT 8SM OVC005 02/01 A3030 RMK AO2 T00220006

LIFR

2.2°C / 1.1°C

[Más]
Viento variable 0kt
Visibilidad >10km
Tiempo -
Nubes Overcast 400ft
Presión
Cambiar -
Bruto KRNT 241130Z AUTO 00000KT 8SM OVC004 02/01 A3030 RMK AO2 T00220011

IFR

2.2°C / 0.6°C

[Más]
Viento 90º 3kt
Visibilidad >10km
Tiempo -
Nubes Overcast 500ft
Presión 1026
Cambiar -
Bruto KRNT 241053Z AUTO 09003KT 9SM OVC005 02/01 A3030 RMK AO2 SLP266 T00220006

IFR

2.8°C / 1.1°C

[Más]
Viento variable 0kt
Visibilidad >10km
Tiempo -
Nubes Overcast 500ft
Presión 1027
Cambiar -
Bruto KRNT 240953Z AUTO 00000KT 9SM OVC005 03/01 A3031 RMK AO2 SLP270 T00280011

IFR

2.2°C / 1.1°C

[Más]
Viento variable 0kt
Visibilidad >10km
Tiempo -
Nubes Overcast 500ft
Presión
Cambiar -
Bruto KRNT 240913Z AUTO 00000KT 8SM OVC005 02/01 A3031 RMK AO2 T00220011

LIFR

2.2°C / 1.1°C

[Más]
Viento variable 0kt
Visibilidad >10km
Tiempo -
Nubes Overcast 400ft
Presión 1027
Cambiar -
Bruto KRNT 240853Z AUTO 00000KT 7SM OVC004 02/01 A3032 RMK AO2 SLP272 T00220011 58006

Radar y precipitación nowcast para Renton

llovizna
Leve
Moderado
Fuerte
Muy fuerte
Granizo

El marcador de lugar se coloca en Renton. Esta animación muestra lo radar de precipitaciones hasta la última hora, así como la 1h previsión. Las lloviznas o las nevadas ligeras pueden ser invisibles para el radar. La intensidad de la precipitación está codificada por colores, que van del azul claro al naranja.

Imágenes actuales de satélite para Renton, Estados Unidos

El marcador de lugar se coloca en Renton. [Más]

La imagen de satélite en tiempo real se aprovecha de la combinación de bandas de la luz visible y de la luz infrarrojo. Como se puede detectar cambios de temperaturas atreves de la banda infrarrojo, la imagen no está escura de noche. No obstante, la niebla y las nubes bajas son apenas visibles en las imágenes infrarrojo como las diferencias de temperaturas entre el suelo y la niebla son muy pequeñas. Por eso son casi invisibles durante la noche. Las imágenes de satélite del Meteosat (Europa) son actualizados en tiempo real cada 5 minutos. Las imágenes del GOES-16/GOES-17 (América del Norte y América del Sur) y Himawari (Asia) son actualizados cada 10 minutos.